Location: Morehouse Lake Observatory
(43.3628°N, 74.6770°W)
Time: 13:34:49
(UTC-05:00)

Envisat - Pass Details

Date: 22 October 2019
Orbit: 764 x 766 km, 98.1° (Epoch: 14 November)

Event Time Altitude Azimuth Distance (km) Brightness Sun altitude
Rises 20:36:04 0° 220° (SW) 3,220 6.6 -28.1°
Reaches altitude 10° 20:40:06 10° 252° (WSW) 2,301 6.2 -28.8°
Maximum altitude 20:41:49 12° 272° (W) 2,192 6.2 -29.1°
Drops below altitude 10° 20:43:33 10° 293° (WNW) 2,307 6.4 -29.4°
Sets 20:47:38 0° 325° (NW) 3,240 6.9 -30.2°
